This demonstration page uses our WeatherBlox Daily Observations layout. Learn more.

Left ArrowRight Arrow

38.20091, -84.87328

Hourly Observations for August 16, 2018

Temp ( °F °C ) Dew Point ( °F °C ) Humidity (%) Winds ( mph kmh ) Pressure ( in mb ) Visibility ( mi km ) Precip ( " mm )
12:53 am 00:53 Clear 68 20 66 18.9 93 93 SE 6 9 30.01 1016 10 16 0.00 0.00
1:53 am 01:53 Clear 68 20 65 18.3 90 90 SE 5 7 30.01 1016 10 16 0.00 0.00
2:53 am 02:53 Partly Cloudy with Nearby Thunderstorms 68 20 66 18.9 93 93 ESE 3 6 30.00 1016 10 16 0.00 0.00
3:15 am 03:15 Mostly Cloudy 69 20.6 66 18.9 90 90 WNW 8 13 30.03 1017 10 16 0.00 0.00
3:37 am 03:37 Mostly Cloudy 70 21.1 67 19.4 90 90 Calm 30.00 1016 10 16 0.00 0.00
3:48 am 03:48 Partly Cloudy 70 21 66 19 88 88 Calm 30.00 1016 10 16 0.00 0.00
3:53 am 03:53 Partly Cloudy 70 21.1 67 19.4 90 90 Calm 30.02 1017 10 16 0.00 0.00
4:41 am 04:41 Mostly Cloudy 70 21.1 67 19.4 90 90 Calm 30.03 1017 10 16 0.00 0.00
4:53 am 04:53 Mostly Cloudy 70 21.1 68 20 93 93 Calm 30.02 1017 10 16 0.00 0.00
5:17 am 05:17 Mostly Cloudy 70 21.1 68 20 93 93 Calm 30.00 1016 10 16 0.00 0.00
5:45 am 05:45 Cloudy with Nearby Thunderstorms 70 21.1 68 20 93 93 Calm 30.03 1017 10 16 0.00 0.00
5:53 am 05:53 Cloudy with Nearby Thunderstorms 70 21.1 67 19.4 90 90 NW 3 6 30.04 1017 10 16 0.00 0.00
6:15 am 06:15 Cloudy 70 21.1 68 20 93 93 Calm 30.03 1017 10 16 0.00 0.00
6:28 am 06:28 Cloudy with Nearby Thunderstorms 70 21.1 68 20 93 93 W 3 6 30.03 1017 9 14 0.00 0.03
6:35 am 06:35 Cloudy with Nearby Thunderstorms 70 21.1 68 20 93 93 Calm 30.06 1018 2 3 0.10 2.54
6:37 am 06:37 Cloudy with Nearby Thunderstorms 70 21.1 68 20 93 93 SW 3 6 30.06 1018 1 2 0.14 3.56
6:39 am 06:39 Cloudy with Nearby Thunderstorms 69 20.6 68 20 96 96 WSW 5 7 30.09 1019 1 2 0.19 4.83
6:42 am 06:42 Cloudy with Nearby Thunderstorms 69 20.6 68 20 96 96 Calm 30.09 1019 1 1 0.28 7.11
6:53 am 06:53 Cloudy with Nearby Thunderstorms 70 21.1 68 20 93 93 SSE 7 11 30.05 1018 1 1 0.56 14.22
6:56 am 06:56 Cloudy with Nearby Thunderstorms 70 21.1 68 20 93 93 S 6 9 30.03 1017 1 2 0.00 0.03
6:59 am 06:59 Cloudy with Nearby Thunderstorms 70 21.1 68 20 93 93 S 5 7 30.03 1017 3 5 0.01 0.25
7:09 am 07:09 Cloudy with Nearby Thunderstorms 70 21.1 68 20 93 93 Calm 30.03 1017 4 6 0.05 1.27
7:19 am 07:19 Mostly Cloudy with Rain 70 21.1 68 20 93 93 ESE 5 7 30.03 1017 5 8 0.09 2.29
7:45 am 07:45 Cloudy with Heavy Rain 69 20.6 68 20 96 96 SE 8 13 30.09 1019 3 4 0.22 5.59
7:53 am 07:53 Cloudy with Rain 69 20.6 68 20 96 96 SSE 8 13 30.06 1018 3 5 0.26 6.60
8:00 am 08:00 Cloudy with Rain 69 20.6 68 20 96 96 SSE 6 9 30.09 1019 3 4 0.02 0.51
8:20 am 08:20 Cloudy with Light Rain 69 20.6 68 20 96 96 SE 5 7 30.09 1019 4 6 0.08 2.03
8:53 am 08:53 Mostly Cloudy with Rain 70 21.1 68 20 93 93 SE 5 7 30.06 1018 3 5 0.14 3.56
9:53 am 09:53 Cloudy 71 21.7 69 20.6 94 94 Calm 30.07 1018 10 16 0.04 1.02
10:02 am 10:02 Cloudy with Rain 71 21.7 69 20.6 94 94 W 5 7 30.09 1019 2 2 0.07 1.78
10:04 am 10:04 Cloudy with Heavy Rain 71 21.7 69 20.6 94 94 W 5 7 30.09 1019 1 1 0.12 3.05
10:13 am 10:13 Cloudy with Heavy Rain 71 21.7 69 20.6 94 94 Calm 30.09 1019 1 2 0.15 3.81
10:15 am 10:15 Cloudy with Heavy Rain 71 21.7 69 20.6 94 94 WSW 3 6 30.09 1019 2 2 0.16 4.06
10:33 am 10:33 Cloudy with Rain 71 21.7 69 20.6 94 94 S 5 7 30.09 1019 3 4 0.23 5.84
10:45 am 10:45 Cloudy with Rain 71 21.7 69 20.6 94 94 S 7 11 30.09 1019 3 5 0.27 6.86
10:53 am 10:53 Cloudy with Rain 71 21.7 69 20.6 94 94 S 6 9 30.10 1019 3 4 0.30 7.62
11:14 am 11:14 Cloudy with Heavy Rain 71 21.7 69 20.6 94 94 S 9 15 30.09 1019 2 3 0.13 3.30
11:30 am 11:30 Cloudy with Rain 72 22.2 69 20.6 91 91 SSW 13 20 30.09 1019 2 3 0.21 5.33
11:41 am 11:41 Cloudy with Heavy Rain 72 22.2 69 20.6 91 91 SSW 9 15 30.09 1019 2 3 0.28 7.11
11:51 am 11:51 Cloudy with Heavy Rain 72 22 70 21 94 94 S 9 15 30.09 1019 2 3 0.32 8.13
11:53 am 11:53 Cloudy with Heavy Rain 71 21.7 69 20.6 94 94 S 9 15 30.10 1019 2 3 0.33 8.38
12:02 pm 12:02 Cloudy with Rain 72 22.2 69 20.6 91 91 S 13 20 30.09 1019 5 8 0.01 0.25
12:53 pm 12:53 Cloudy with Light Rain 73 22.8 70 21.1 90 90 S 10 17 30.06 1018 10 16 0.06 1.52
1:53 pm 13:53 Mostly Sunny 75 23.9 72 22.2 90 90 S 10 17 30.06 1018 10 16 0.01 0.25
2:53 pm 14:53 Mostly Sunny 79 26.1 71 21.7 77 77 SSW 15 24 30.02 1017 10 16 0.00 0.00
3:53 pm 15:53 Sunny 80 26.7 71 21.7 74 74 SSW 17 28 30.01 1016 10 16 0.00 0.00
4:53 pm 16:53 Sunny 82 27.8 71 21.7 69 69 SSW 16 26 29.99 1016 10 16 0.00 0.00
5:53 pm 17:53 Mostly Sunny 83 28.3 72 22.2 70 70 SSW 15 24 29.99 1016 10 16 0.00 0.00
6:53 pm 18:53 Partly Cloudy 82 27.8 72 22.2 72 72 S 12 19 29.99 1016 10 16 0.00 0.00
7:53 pm 19:53 Sunny 80 26.7 72 22.2 76 76 S 12 19 29.99 1016 10 16 0.00 0.00
8:53 pm 20:53 Clear 79 26.1 72 22.2 79 79 S 8 13 30.00 1016 10 16 0.00 0.00
9:53 pm 21:53 Clear 77 25 72 22.2 85 85 S 13 20 29.99 1016 10 16 0.00 0.00
10:53 pm 22:53 Clear 77 25 72 22.2 85 85 S 13 20 29.98 1015 10 16 0.00 0.00
11:53 pm 23:53 Clear 76 24.4 72 22.2 88 88 S 7 11 30.01 1016 10 16 0.00 0.00

Powered by AerisWeather